Temp
12 11 11 11 12 13 13 13 13 14 17 16 17 18 19 20 18 18 18 17 16 16 17 19 20 20 20 20 20 20 19 18 19 18 18 17 16 16 16 16 16 16 16 15
11 11 13 12 12 12 12 12 13 14 15 16 15 16 18 20 20 20 20 18 16 16 15 16 17 18 19 19 18 17 17 17 18 19 18 17 16 15 15 15 15 15 15 14
12 13 13 13 12 12 12 12 13 13 14 15 16 16 17 19 20 20 21 19 17 17 15 14 13 16 17 18 18 17 17 17 18 18 17 15 15 14 14 14 13 13 13 13
12 12 12 13 12 12 12 13 14 14 13 13 16 15 17 19 19 19 21 16 17 16 16 14 12 13 16 17 17 17 17 18 17 17 16 16 14 13 13 13 12 12 12 12
11 10 11 11 12 13 12 14 14 14 13 13 14 14 17 18 18 19 21 16 17 16 16 14 13 14 15 16 16 17 17 17 17 17 17 16 14 14 13 12 12 11 11 11
11 13 12 12 13 13 13 13 13 13 14 13 14 15 17 17 19 19 20 17 17 16 15 13 13 13 14 15 16 16 16 16 16 16 16 15 14 13 12 11 11 11 10 10
10 10 11 12 13 13 13 12 11 10 11 12 15 15 16 17 17 20 21 16 16 16 14 12 12 12 11 13 14 15 15 14 15 15 15 14 13 13 12 12 11 10 10 9
10 10 9 12 13 12 12 12 11 10 10 13 17 15 16 17 19 20 19 18 16 15 14 13 12 12 11 12 13 14 14 13 14 14 13 13 13 12 12 11 11 10 9 8
10 10 11 12 13 14 11 11 13 12 13 14 15 17 18 18 17 17 19 16 15 14 13 12 11 12 11 12 13 13 13 13 13 13 12 12 12 12 11 10 10 9 8 7
10 8 11 12 12 12 12 13 11 10 12 12 15 16 18 19 18 16 16 15 15 14 13 12 12 11 11 12 12 13 13 12 12 12 12 11 11 10 10 9 9 8 7 7
10 9 10 10 9 12 11 11 12 13 13 15 16 17 17 19 19 17 16 15 14 13 12 12 12 11 11 12 12 12 12 11 11 11 10 10 9 9 9 8 8 7 7 6
11 10 10 11 13 13 12 12 12 13 13 14 14 16 20 17 18 17 16 15 14 14 13 12 11 10 10 10 11 11 11 11 10 10 10 9 9 8 8 7 7 6 6 6
11 10 11 11 11 11 11 12 14 14 12 14 14 16 16 15 16 17 16 14 14 13 12 11 10 10 10 9 10 10 10 10 10 9 9 8 8 8 7 7 6 6 6 5
10 10 11 12 13 13 12 12 14 14 14 15 13 14 16 16 16 14 14 14 13 13 12 11 10 10 9 9 9 10 10 10 9 9 8 8 7 7 6 6 6 5 5 4
9 10 10 11 11 12 15 14 15 14 14 14 15 16 18 17 16 15 14 14 13 13 12 11 11 10 9 8 8 9 9 9 8 8 8 7 7 6 6 5 5 4 4 4
9 10 10 12 13 12 15 15 15 15 12 12 12 12 19 15 14 13 14 14 14 13 13 12 11 9 8 8 7 8 8 8 8 8 7 6 6 5 5 5 4 4 3 3
11 10 11 14 15 15 15 16 15 15 13 12 11 14 16 17 16 14 13 15 15 14 13 12 10 10 9 7 8 7 8 8 7 7 6 6 5 5 4 4 4 3 3 2
12 12 14 14 14 15 18 16 16 14 14 14 15 18 17 15 11 11 12 14 14 14 12 11 10 9 8 8 8 8 7 7 7 6 5 5 5 4 4 3 3 2 2 1
14 14 13 13 13 16 18 17 16 16 17 16 18 16 13 12 13 12 9 12 12 12 11 11 10 8 7 7 7 7 7 6 6 5 5 4 4 4 3 3 2 2 1 1
12 13 14 10 12 16 17 17 17 17 16 16 16 14 13 13 15 13 8 8 7 7 8 7 7 6 6 6 7 7 5 5 5 5 4 4 3 3 3 2 2 1 1 0
13 13 12 12 13 13 15 17 16 18 17 15 15 13 13 14 12 8 7 6 6 6 6 6 6 5 5 7 7 5 5 5 5 4 4 3 3 2 2 2 1 0 -0 -1
14 13 14 13 13 12 15 17 18 15 13 12 11 10 9 8 8 7 6 6 6 5 5 5 5 4 6 6 6 4 4 4 4 3 3 3 2 2 1 1 0 -0 -1 -1
14 14 13 13 13 14 14 15 15 13 12 11 8 8 8 8 7 7 6 5 5 5 4 5 4 4 5 6 6 4 3 3 3 3 2 2 2 1 0 -0 -1 -1 -2 -2
13 13 13 14 14 14 14 14 13 13 11 8 8 8 9 7 7 6 5 5 4 4 4 4 4 3 3 5 5 4 3 3 3 2 2 1 1 0 -0 -1 -2 -2 -2 -3
12 12 13 13 13 13 13 13 11 9 8 8 7 8 7 7 6 6 5 4 4 3 3 4 3 2 2 3 3 3 3 2 2 1 1 0 -0 -1 -1 -2 -2 -3 -3 -3
11 12 14 14 13 14 13 10 9 9 8 8 8 7 7 7 6 5 5 4 4 3 3 3 3 2 2 3 2 2 2 2 2 1 0 -1 -1 -1 -2 -2 -2 -3 -4 -3
Height
779 787 782 783 779 778 779 777 777 774 765 768 759 749 742 739 737 738 734 734 735 735 734 734 733 735 735 737 739 742 744 747 749 755 761 766 771 775 777 781 784 786 788 788
783 778 773 775 778 779 779 779 774 773 768 763 761 749 740 730 724 727 725 729 731 734 736 732 732 733 734 735 738 740 742 746 750 755 760 765 770 776 779 782 786 788 788 788
775 769 767 771 774 778 776 776 778 780 771 759 759 745 738 723 720 719 714 718 722 725 730 731 731 731 733 735 739 741 744 748 752 755 761 767 773 777 780 784 786 788 789 789
770 769 767 767 770 774 772 767 771 773 777 776 755 748 729 717 715 715 709 719 718 722 724 728 730 731 731 735 739 743 745 749 753 757 761 765 769 775 781 784 786 788 789 790
764 766 766 767 763 765 767 765 767 768 770 773 759 765 721 717 712 704 698 711 710 713 716 723 727 728 731 735 739 743 746 749 754 758 761 766 771 776 781 784 786 788 790 790
758 755 756 752 753 758 761 766 767 768 766 762 740 750 715 711 700 697 694 700 703 708 716 722 728 730 732 735 740 745 747 751 755 759 763 767 772 777 780 784 786 788 789 790
761 759 757 752 753 756 762 769 777 783 774 748 727 737 713 698 692 681 680 693 699 704 712 720 726 730 733 735 739 745 748 753 756 759 764 769 773 777 780 783 785 787 788 789
748 755 756 748 745 749 754 757 766 772 774 745 722 719 699 685 675 675 678 681 691 701 709 716 722 727 731 734 739 745 749 752 756 760 765 770 774 777 780 783 785 787 788 789
751 750 741 742 740 743 756 754 741 752 742 736 717 693 681 672 671 672 668 680 687 694 703 714 721 726 730 735 739 743 749 753 757 761 766 770 774 777 780 783 785 787 788 788
746 758 736 736 739 739 740 739 758 764 752 738 709 701 682 665 664 671 674 677 686 694 703 714 720 726 731 736 741 746 752 754 759 763 767 771 774 778 781 784 785 787 787 787
737 743 740 742 739 730 741 746 737 736 735 715 704 690 668 661 659 667 674 675 682 691 701 710 719 726 731 737 741 747 753 755 760 764 768 771 775 779 782 784 785 786 786 786
726 735 734 724 711 719 727 725 730 727 726 719 716 691 648 654 653 662 671 676 684 691 700 710 717 725 731 737 742 747 753 757 762 765 769 772 776 780 782 784 784 785 785 784
720 722 717 711 716 720 714 718 716 717 723 715 714 686 661 657 662 664 670 679 687 695 704 712 719 724 730 737 742 748 753 758 762 767 770 774 777 780 782 783 784 783 783 783
719 714 708 694 680 683 695 704 702 708 707 701 709 698 679 664 664 671 676 680 686 695 702 711 719 724 730 736 742 748 754 759 763 767 771 774 777 780 781 782 782 782 782 782
717 706 703 694 690 691 678 684 688 695 696 705 690 692 667 657 661 667 673 682 689 697 704 709 716 723 730 736 742 748 754 759 763 767 771 774 777 779 780 781 782 782 781 780
712 703 698 672 660 679 672 676 681 690 705 711 711 703 659 664 667 672 675 680 687 694 701 707 714 721 728 734 740 748 754 759 763 767 771 774 776 778 780 781 781 781 780 779
705 700 689 672 665 667 672 668 676 684 697 707 712 689 660 661 663 671 676 677 682 688 695 703 710 718 726 733 739 746 753 758 763 767 771 773 776 778 779 780 779 779 778 777
694 691 677 674 671 674 654 653 661 676 681 686 684 658 657 661 676 677 677 676 681 686 693 701 709 718 726 733 740 746 753 759 763 767 770 773 776 778 778 778 778 778 776 775
681 683 686 684 683 664 650 656 665 670 667 660 658 661 666 671 671 678 682 679 682 686 693 700 708 716 725 732 740 747 754 759 763 767 771 774 776 777 777 778 777 776 775 773
684 681 685 707 691 672 656 652 651 651 668 654 656 663 666 671 680 681 686 686 688 692 697 704 712 719 726 735 741 748 755 760 764 768 771 773 775 776 777 777 776 775 773 771
683 683 690 691 687 678 656 650 650 660 665 652 653 659 662 666 673 683 690 693 694 697 702 709 716 722 729 737 743 750 756 760 764 768 771 773 774 775 776 775 775 773 772 769
675 680 681 686 690 691 654 650 653 658 657 660 661 663 674 678 682 689 694 698 700 704 710 715 720 729 736 741 746 752 757 762 765 768 770 773 774 775 775 774 774 772 769 766
674 669 676 679 675 661 658 655 655 657 659 663 668 669 673 682 689 694 701 704 708 711 716 721 726 734 741 745 748 754 759 763 766 769 771 772 773 774 774 774 772 768 765 762
667 666 669 666 659 659 659 658 658 659 663 668 671 674 676 684 693 700 705 710 714 719 723 727 732 738 744 749 753 756 760 764 766 769 771 772 773 773 773 771 769 766 763 760
665 665 666 666 661 662 661 660 664 668 669 673 678 680 684 688 699 703 709 714 719 723 728 732 736 742 747 751 754 758 762 765 767 769 770 771 772 772 770 768 766 764 762 759
662 659 661 658 650 651 655 661 666 668 674 677 679 688 692 693 699 706 713 717 721 726 731 736 740 744 750 754 757 761 763 765 767 769 770 771 771 770 768 766 763 762 760 758
Wind_Speed
1 3 10 13 13 7 5 6 7 4 4 7 13 18 17 13 12 10 12 8 8 9 6 13 12 11 13 11 12 16 22 29 34 33 30 30 27 24 21 17 16 14 11 9
4 12 12 8 10 9 11 12 15 8 9 10 10 16 16 16 18 14 16 9 9 6 6 7 11 13 14 15 15 22 28 31 33 32 28 28 28 22 21 19 16 13 11 10
17 6 13 13 12 10 15 17 11 9 10 18 13 21 14 16 17 13 14 8 10 17 13 8 8 15 17 18 21 27 29 30 31 30 30 29 26 25 23 18 17 13 10 10
13 15 8 12 15 11 16 10 13 11 7 7 2 11 9 12 18 14 18 9 13 13 7 6 8 13 22 22 23 27 29 30 29 30 31 32 28 25 21 18 16 13 10 8
8 8 19 20 17 14 9 8 9 8 8 8 18 10 10 12 13 18 23 12 15 18 17 15 12 19 25 25 27 30 31 31 29 28 29 28 28 23 21 18 15 11 8 7
8 1 8 9 14 14 3 7 5 3 4 9 19 12 13 13 15 12 13 13 15 17 12 9 12 21 25 27 28 29 30 28 26 27 27 27 26 25 22 17 14 9 6 5
5 16 5 3 5 11 11 4 3 3 6 10 6 12 20 9 11 15 18 14 14 17 16 15 15 14 21 29 30 29 30 29 28 27 26 25 24 22 19 16 13 9 4 3
8 4 16 9 11 5 15 14 4 6 3 5 8 10 6 16 26 17 11 15 18 18 16 17 15 18 21 28 31 30 30 29 29 28 26 23 22 20 17 14 11 7 4 3
5 4 4 7 9 12 4 9 20 6 5 5 6 4 8 13 10 9 15 18 21 20 19 17 14 19 22 28 30 33 32 30 29 28 26 23 21 18 16 12 9 5 3 3
6 3 5 5 6 7 8 5 5 4 6 5 4 5 10 13 13 8 15 19 18 17 17 14 14 18 21 28 31 30 30 30 27 26 24 22 19 16 13 10 7 4 3 3
6 5 2 4 9 12 6 11 7 7 7 3 4 6 9 13 10 14 14 18 20 19 17 16 13 18 22 29 30 29 28 27 25 24 22 21 18 15 12 8 6 3 2 4
11 4 8 18 4 10 19 20 19 6 7 9 6 7 3 9 13 16 16 16 15 16 16 14 14 19 22 25 29 29 27 27 24 22 21 19 17 13 10 6 4 2 3 5
10 5 4 4 8 12 12 19 20 15 5 6 4 6 7 6 8 10 15 13 14 14 14 13 12 13 19 21 27 29 27 26 24 22 20 18 15 11 7 5 2 3 5 7
12 3 6 9 3 9 8 23 22 21 10 8 9 17 22 6 10 8 9 13 15 15 16 13 12 12 18 22 26 29 26 25 24 21 19 16 12 9 6 3 2 4 6 8
8 6 9 15 18 12 17 24 22 22 6 8 9 14 15 9 11 12 11 12 14 14 15 15 14 12 16 20 25 28 27 26 24 21 17 14 11 7 5 2 3 4 6 9
4 5 4 6 10 16 16 20 17 14 5 5 21 27 5 4 7 8 13 15 15 15 15 14 14 13 16 22 23 28 28 25 23 20 16 13 9 6 3 1 3 6 9 12
4 3 4 5 5 8 6 18 20 14 12 15 14 23 5 4 6 8 10 15 17 16 16 16 16 14 19 22 30 30 29 26 22 18 15 12 8 5 2 2 5 8 11 15
6 6 4 1 1 3 3 19 24 22 21 24 23 1 3 5 5 6 4 9 11 14 14 13 12 16 20 26 29 32 28 25 21 18 14 10 7 4 1 3 6 9 13 15
8 3 3 2 2 5 2 5 8 15 10 7 7 4 5 6 4 6 6 1 5 7 9 12 20 23 27 30 32 31 27 23 20 17 13 9 5 2 2 5 8 11 14 16
2 3 2 3 2 2 3 1 1 3 3 3 6 9 9 6 4 3 4 3 10 10 15 19 24 28 30 28 33 30 26 22 18 15 11 7 4 2 3 7 10 12 14 16
3 2 4 2 3 7 5 3 1 3 4 2 1 7 9 6 2 8 7 9 9 14 21 24 24 24 28 33 30 26 23 19 16 13 9 6 3 2 5 7 11 13 15 17
5 5 3 2 1 6 3 4 2 3 2 2 1 3 8 12 13 11 10 11 13 14 18 22 24 23 28 28 26 24 21 17 14 11 8 5 3 3 5 9 12 13 15 19
3 5 5 7 5 2 3 2 2 1 3 2 5 9 17 15 12 11 10 11 10 13 17 20 24 25 23 21 23 23 18 15 13 10 7 4 3 4 7 9 12 15 18 19
3 2 3 1 1 2 2 1 2 3 4 7 9 11 13 18 12 11 10 10 10 13 16 21 23 19 19 19 18 20 17 13 11 9 6 3 3 5 7 8 12 15 16 18
4 6 5 5 3 1 4 2 5 7 10 11 9 9 14 17 12 12 10 9 9 13 17 21 20 20 20 19 19 16 14 12 10 7 4 3 3 6 9 12 13 14 15 16
5 6 5 6 7 5 3 8 8 11 9 9 14 10 7 11 13 10 8 9 13 15 20 20 21 23 20 19 17 14 11 9 7 6 3 2 5 8 10 14 18 18 13 15
Wind_Direction
225 198 218 224 223 248 298 271 257 357 318 313 270 272 258 252 255 236 245 244 215 214 211 190 169 173 162 163 169 175 172 164 161 151 144 138 130 127 122 123 125 128 120 104
258 239 227 231 230 238 252 267 269 288 260 271 277 281 277 251 246 235 239 231 210 169 207 180 159 163 165 154 151 156 157 157 157 154 151 145 137 130 129 127 124 117 109 93
226 236 231 217 225 224 238 242 257 264 302 286 285 283 265 256 248 246 245 214 188 182 184 182 156 155 152 149 150 150 151 152 151 148 143 136 134 131 127 128 120 109 99 84
240 228 248 207 223 217 244 210 241 259 275 263 37 279 255 241 239 237 245 189 190 185 173 150 154 152 149 150 156 155 153 151 151 153 152 152 146 140 143 138 126 114 95 82
211 208 221 238 234 212 244 218 225 237 252 268 257 268 265 233 240 225 230 196 195 184 171 169 169 153 147 148 153 156 155 153 156 161 161 154 146 147 145 140 134 119 99 77
221 68 213 218 226 214 143 229 269 301 286 243 244 223 255 232 230 231 226 200 193 178 165 145 143 143 146 147 149 153 152 152 158 157 154 153 149 147 146 146 141 134 112 71
197 225 264 232 179 210 211 157 258 225 202 240 183 209 240 252 242 221 218 194 182 170 155 152 153 150 147 148 152 156 153 152 155 155 155 156 153 151 149 150 149 147 134 78
207 220 197 195 219 175 199 196 202 207 214 255 164 241 235 221 243 243 238 198 164 162 161 160 158 154 150 147 150 153 155 151 154 153 151 152 152 150 147 147 146 142 121 78
202 248 178 203 192 187 192 205 218 311 253 257 232 268 279 254 253 229 227 168 171 159 158 161 155 155 152 152 154 154 152 149 150 149 149 148 148 147 143 141 139 127 104 46
192 250 202 155 174 232 223 141 147 194 236 234 250 261 240 213 216 164 163 166 162 155 151 154 155 155 155 157 157 156 156 152 150 150 150 147 144 144 142 139 133 118 89 18
175 185 156 142 195 197 195 228 232 174 229 276 257 238 214 240 191 171 177 165 161 160 156 156 155 153 152 157 158 157 157 152 150 151 148 146 144 143 141 138 124 99 41 7
203 198 218 225 188 204 220 218 215 208 203 238 309 282 248 224 175 167 176 168 158 153 151 151 152 150 151 155 160 161 159 156 155 152 148 145 145 145 144 133 109 66 18 358
171 215 249 251 198 197 212 207 199 229 136 235 220 264 2 121 125 167 153 148 149 144 145 149 150 155 155 154 158 163 162 157 156 154 151 147 147 149 143 129 97 24 1 352
169 237 228 237 7 145 182 198 194 211 223 219 248 291 291 151 141 136 142 145 149 154 155 154 154 155 155 156 158 163 160 160 158 156 153 151 151 151 142 119 53 10 358 351
178 244 230 247 243 242 185 190 196 214 221 210 275 281 238 172 171 169 151 140 146 157 161 164 161 157 151 150 157 163 161 160 160 157 156 154 152 150 137 98 25 3 354 353
188 272 247 277 217 202 201 182 184 184 154 247 251 269 273 90 102 135 155 157 165 169 168 165 159 155 159 158 154 159 161 160 163 159 158 155 153 149 137 64 6 355 355 349
227 271 316 355 133 143 153 185 186 195 198 207 229 246 188 162 154 159 158 168 172 173 167 165 164 164 159 153 159 159 162 161 161 158 155 155 154 152 134 27 1 355 352 349
242 236 262 299 79 50 180 188 186 195 214 208 222 191 160 129 94 77 19 171 169 168 161 158 153 145 146 153 158 160 160 159 157 156 155 156 158 147 71 8 358 352 349 347
198 259 308 1 289 287 57 93 166 192 226 218 205 123 110 119 83 29 15 60 141 141 144 143 146 141 144 151 158 156 155 156 155 153 154 155 150 122 24 357 354 352 343 341
272 239 189 16 4 28 241 100 153 171 257 216 162 162 156 156 128 234 31 68 97 94 114 119 124 131 137 144 154 152 154 154 152 152 150 149 141 85 8 357 353 346 339 333
159 178 188 342 310 287 259 299 330 123 243 283 167 175 161 155 189 125 101 74 86 102 108 115 120 125 137 151 154 147 151 149 149 148 145 142 120 39 3 354 347 341 338 336
171 155 168 132 278 290 346 347 162 210 27 11 43 112 97 109 102 101 99 96 100 102 101 111 111 120 143 150 150 144 144 145 146 146 142 133 94 30 3 347 343 344 341 340
213 175 178 188 211 256 324 294 346 138 124 89 103 113 122 116 111 109 106 99 94 102 103 111 118 126 141 148 149 142 144 148 147 144 133 112 66 35 0 353 346 344 345 345
264 167 208 149 14 190 220 354 30 45 103 97 108 118 126 122 120 113 109 108 106 106 111 120 121 122 131 141 145 144 146 150 146 136 124 94 53 3 353 355 353 348 347 341
194 148 171 267 267 224 235 195 133 89 98 94 79 107 125 120 118 123 119 114 116 115 119 127 126 129 135 140 140 144 147 150 140 132 115 70 12 347 351 354 356 351 346 336
186 177 172 217 207 171 200 155 139 127 123 121 119 103 87 119 122 122 116 122 125 124 132 129 134 135 140 142 140 142 144 146 137 124 95 21 346 349 347 347 345 351 341 333